DW7264 Weather Reports


time (UTC)temp
F
wind
direction
speed
knots
gust
knots
rain 1hr
in
rain 24hr
in
rain mn
in
humidity
%
barometer
mb
20260507083645 59 302 0.0 0.0 0.00 0.09 0.00 52 1011.6
20260507083152 59 47 0.0 0.0 0.00 0.09 0.00 50 1011.7
20260507082700 59 291 0.0 0.0 0.00 0.09 0.00 53 1011.7
20260507082203 59 294 0.0 0.0 0.00 0.09 0.00 51 1011.6
20260507081702 60 288 0.0 0.0 0.00 0.09 0.00 50 1011.7
20260507080548 60 208 0.0 0.0 0.00 0.09 0.00 49 1011.7
20260507080035 60 109 0.0 0.0 0.00 0.09 0.00 50 1011.8
20260507075543 60 58 0.0 0.0 0.00 0.09 0.00 49 1011.7
20260507075053 59 286 0.0 8.7 0.00 0.09 0.00 51 1011.7
20260507074551 58 286 0.0 0.0 0.00 0.09 0.00 55 1011.7
20260507074048 59 211 0.0 0.0 0.00 0.09 0.00 52 1011.8
20260507073552 60 124 0.0 0.0 0.00 0.09 0.00 51 1011.9
20260507073054 61 125 0.0 0.0 0.00 0.09 0.00 49 1011.9
20260507072559 61 128 0.0 0.0 0.00 0.09 0.00 49 1011.8
20260507072101 61 223 0.0 0.0 0.00 0.09 0.00 48 1011.8
20260507071604 61 277 0.0 0.0 0.00 0.09 0.00 50 1011.8
20260507071052 62 218 0.0 1.7 0.00 0.09 0.00 48 1011.7
20260507070539 61 289 0.0 0.0 0.00 0.09 0.00 48 1011.7
20260507070044 61 277 0.0 0.0 0.00 0.09 0.00 49 1011.6
20260507065530 61 269 0.0 0.0 0.00 0.09 0.00 50 1011.5
20260507065027 60 263 0.0 6.1 0.00 0.09 0.00 51 1011.5
20260507064525 59 323 0.0 0.9 0.00 0.09 0.00 53 1011.5
20260507064019 60 217 0.0 0.0 0.00 0.09 0.00 51 1011.6
20260507063512 61 252 0.0 0.0 0.00 0.09 0.00 51 1011.8
20260507063012 62 305 0.0 0.0 0.00 0.09 0.00 47 1011.7
20260507062502 63 286 0.0 0.0 0.00 0.09 0.00 47 1011.7
20260507062011 63 342 0.0 0.0 0.00 0.09 0.00 47 1011.7
20260507060859 63 274 0.0 0.0 0.00 0.09 0.00 47 1011.4
20260507060347 62 246 0.0 3.5 0.00 0.09 0.00 48 1011.2
20260507055838 61 252 0.0 0.0 0.00 0.09 0.00 50 1011.2
20260507055323 61 269 0.0 0.0 0.00 0.09 0.00 52 1011.3
20260507054833 61 275 0.0 0.0 0.00 0.09 0.00 51 1011.4
20260507054335 62 217 0.0 0.0 0.00 0.09 0.00 51 1011.2
20260507053836 63 210 0.0 0.0 0.00 0.09 0.00 48 1011.3
20260507053326 63 274 0.0 0.0 0.00 0.09 0.00 47 1011.4
20260507052813 64 217 0.0 0.0 0.00 0.09 0.00 46 1011.2
20260507052306 64 355 0.0 0.0 0.00 0.09 0.00 47 1011.2
20260507051754 64 319 0.0 0.0 0.00 0.09 0.00 47 1011.2
20260507051254 64 11 1.7 0.0 0.00 0.09 0.00 47 1011.2
20260507050759 64 267 3.5 4.3 0.00 0.09 0.00 47 1011.2
20260507050245 64 304 3.5 23.5 0.00 0.09 0.00 47 1011.3
20260507045738 64 298 3.5 23.5 0.00 0.09 0.00 47 1011.2
20260507045244 64 218 5.2 23.5 0.00 0.09 0.00 47 1011.3
20260507044753 64 267 3.5 23.5 0.00 0.09 0.00 47 1011.5
20260507043636 64 296 3.5 20.9 0.00 0.09 0.00 47 1011.7
20260507043128 65 269 1.7 16.5 0.00 0.09 0.00 46 1011.7
20260507042626 65 346 1.7 17.4 0.00 0.09 0.00 47 1011.9
20260507042114 65 344 4.3 17.4 0.00 0.09 0.00 46 1011.8
20260507041608 65 28 7.0 17.4 0.00 0.09 0.00 46 1011.9
20260507041114 65 341 5.2 17.4 0.00 0.09 0.00 46 1011.6
20260507040623 65 13 0.9 15.6 0.00 0.09 0.00 46 1011.7
20260507040117 66 309 0.0 0.0 0.00 0.09 0.00 46 1011.5
20260507035006 66 296 0.9 16.5 0.00 0.09 0.00 45 1011.3
20260507034510 67 355 0.9 8.7 0.00 0.09 0.00 44 1011.2
20260507034022 67 336 0.9 15.6 0.00 0.09 0.00 44 1011.0
20260507033533 67 355 0.0 12.2 0.00 0.09 0.00 43 1011.0
20260507033028 68 333 0.0 7.0 0.00 0.09 0.00 43 1011.0
20260507032529 68 293 0.0 0.0 0.00 0.09 0.00 42 1010.8
20260507031406 69 63 0.0 0.0 0.00 0.09 0.00 41 1010.6
20260507030915 69 11 0.0 0.0 0.00 0.09 0.00 41 1010.6
20260507030426 69 309 0.0 10.4 0.00 0.09 0.00 40 1010.5
20260507025941 69 11 0.0 7.0 0.00 0.09 0.00 40 1010.5
20260507025433 70 0 0.0 10.4 0.00 0.09 0.00 39 1010.5
20260507024308 70 344 0.0 0.0 0.00 0.09 0.00 39 1010.4
20260507023806 70 305 0.0 0.0 0.00 0.09 0.00 38 1010.4
20260507023318 70 301 0.0 2.6 0.00 0.09 0.00 39 1010.3
20260507022810 71 221 0.0 0.9 0.00 0.09 0.00 38 1010.1
20260507022317 71 71 0.0 0.0 0.00 0.09 0.00 38 1010.1
20260507021816 71 255 0.0 0.0 0.00 0.09 0.00 38 1010.1
20260507021325 71 128 0.0 0.0 0.00 0.09 0.00 38 1010.0
20260507020830 71 253 0.0 10.4 0.00 0.09 0.00 38 1010.1
20260507020329 71 264 0.0 0.0 0.00 0.09 0.00 39 1010.1
20260507015815 71 277 0.0 13.0 0.00 0.09 0.00 38 1010.1
20260507015306 72 5 0.9 13.0 0.00 0.09 0.00 37 1010.0
20260507014820 72 219 0.9 11.3 0.00 0.09 0.00 37 1010.0
20260507013642 73 5 0.9 15.6 0.00 0.09 0.00 37 1010.0
20260507013130 73 328 0.9 14.8 0.00 0.09 0.00 36 1009.9
20260507012632 73 336 0.9 14.8 0.00 0.09 0.00 36 1009.9
20260507012119 74 18 2.6 15.6 0.00 0.09 0.00 37 1009.9
20260507011625 74 316 3.5 15.6 0.00 0.09 0.00 35 1009.9
20260507011122 74 298 2.6 14.8 0.00 0.09 0.00 37 1009.9
20260507010007 74 300 1.7 13.0 0.00 0.09 0.00 36 1009.9
20260507005515 74 9 3.5 17.4 0.00 0.09 0.00 37 1009.7
20260507005002 75 290 4.3 17.4 0.00 0.09 0.00 36 1009.8
20260507004511 75 288 2.6 15.6 0.00 0.09 0.00 36 1009.8
20260507003956 75 33 0.9 15.6 0.00 0.09 0.00 36 1009.7
20260507003448 75 307 0.9 13.0 0.00 0.09 0.00 36 1009.6
20260507002947 75 232 0.0 1.7 0.00 0.09 0.00 36 1009.5
20260507002501 75 285 0.0 0.0 0.00 0.09 0.00 38 1009.6
20260507002000 74 337 0.0 0.0 0.00 0.09 0.00 37 1009.7
20260507001455 74 249 0.0 0.0 0.00 0.09 0.00 37 1009.5
20260507001006 74 215 0.0 0.0 0.00 0.09 0.00 37 1009.6
20260507000518 74 244 0.0 0.0 0.00 0.09 0.00 37 1009.5
20260506235428 74 137 0.0 0.0 0.00 0.09 0.00 44 1009.4
20260506234922 74 297 0.0 0.0 0.00 0.09 0.00 41 1009.4
20260506234412 74 144 0.0 0.0 0.00 0.09 0.00 43 1009.4
20260506233926 75 171 0.0 0.0 0.00 0.09 0.00 40 1009.4
20260506233427 75 74 0.0 0.0 0.00 0.09 0.00 38 1009.5
20260506232921 74 355 0.0 7.0 0.00 0.09 0.00 37 1009.5
20260506232420 75 322 0.0 0.0 0.00 0.09 0.00 40 1009.6
20260506231930 75 281 0.0 0.0 0.00 0.09 0.00 40 1009.5
20260506231436 75 246 0.0 0.0 0.00 0.09 0.00 35 1009.4
20260506230941 75 113 0.0 0.0 0.00 0.09 0.00 39 1009.3
20260506230433 75 108 0.0 0.0 0.00 0.09 0.00 44 1009.4
20260506225325 76 294 0.0 0.0 0.00 0.09 0.00 39 1009.4
20260506224819 76 294 0.0 0.0 0.00 0.09 0.00 34 1009.5
20260506224328 77 343 0.0 0.0 0.00 0.09 0.00 31 1009.4
20260506223840 77 241 0.0 0.0 0.00 0.09 0.00 29 1009.5
20260506223341 77 250 0.0 0.0 0.00 0.09 0.00 29 1009.4
20260506222831 77 33 0.0 0.0 0.00 0.09 0.00 28 1009.5
20260506222338 77 69 0.0 0.0 0.00 0.09 0.00 28 1009.6
20260506221824 78 284 0.0 0.0 0.00 0.09 0.00 29 1009.5
20260506221327 78 17 0.0 0.0 0.00 0.09 0.00 31 1009.6
20260506220838 78 40 0.0 0.0 0.00 0.09 0.00 29 1009.5
20260506220350 78 336 0.0 0.0 0.00 0.09 0.00 27 1009.6
20260506215843 78 332 0.0 0.0 0.00 0.09 0.00 27 1009.5
20260506215336 78 327 0.0 0.0 0.00 0.09 0.00 27 1009.6
20260506213617 78 58 0.0 0.9 0.00 0.09 0.00 28 1009.6
20260506212445 78 290 0.0 6.1 0.00 0.09 0.00 27 1009.5
20260506211950 78 300 0.0 3.5 0.00 0.09 0.00 27 1009.6
20260506211448 78 0 0.0 0.0 0.00 0.09 0.00 28 1009.4
20260506210951 78 340 0.0 0.0 0.00 0.09 0.00 26 1009.4
20260506205841 78 335 0.0 8.7 0.00 0.09 0.00 29 1009.4
20260506205348 78 13 0.0 0.0 0.00 0.09 0.00 27 1009.3
20260506204840 79 312 0.0 0.0 0.00 0.09 0.00 28 1009.4
20260506203724 79 5 0.0 0.0 0.00 0.09 0.00 29 1009.3
20260506203218 78 309 0.0 0.0 0.00 0.09 0.00 28 1009.3
20260506202706 79 336 1.7 7.0 0.00 0.09 0.00 28 1009.3
20260506202210 79 320 2.6 14.8 0.00 0.09 0.00 26 1009.4
20260506201706 79 277 0.9 12.2 0.00 0.09 0.00 28 1009.3
20260506201214 79 23 0.0 0.0 0.00 0.09 0.00 27 1009.3
20260506200714 79 292 1.7 7.8 0.00 0.09 0.00 27 1009.2
20260506200221 80 23 0.9 12.2 0.00 0.09 0.00 29 1009.1
20260506195714 81 281 0.0 0.0 0.00 0.09 0.00 27 1009.0
20260506195220 81 265 0.0 6.1 0.00 0.09 0.00 28 1009.0
20260506194726 81 139 0.0 0.0 0.00 0.09 0.00 29 1009.0
20260506194231 80 314 0.0 0.0 0.00 0.09 0.00 28 1009.0
20260506193745 80 234 0.0 7.8 0.00 0.09 0.00 31 1009.1
20260506192605 80 329 0.0 0.0 0.00 0.09 0.00 32 1009.2
20260506190201 80 224 1.7 15.6 0.00 0.09 0.00 32 1009.2
20260506185653 80 290 0.9 0.0 0.00 0.09 0.00 32 1009.2
20260506184529 80 313 0.9 14.8 0.00 0.09 0.00 30 1009.2
20260506184042 80 348 1.7 0.0 0.00 0.09 0.00 34 1009.2
20260506183554 80 304 1.7 13.9 0.00 0.09 0.00 32 1009.2
20260506183041 80 314 0.9 18.2 0.00 0.09 0.00 32 1009.2
20260506182530 80 224 0.0 11.3 0.00 0.09 0.00 34 1009.0
20260506182023 80 250 0.0 6.1 0.00 0.09 0.00 34 1009.2
20260506181523 80 337 0.0 0.0 0.00 0.09 0.00 37 1009.0
20260506181034 80 346 0.0 6.1 0.00 0.09 0.00 33 1009.0
20260506180541 80 305 0.0 0.0 0.00 0.09 0.00 33 1009.0
20260506180050 80 305 0.0 7.0 0.00 0.09 0.00 33 1008.8
20260506175534 80 280 0.0 0.0 0.00 0.09 0.00 33 1008.8
20260506175021 80 286 0.0 0.0 0.00 0.09 0.00 34 1008.8
20260506173934 80 63 0.0 0.0 0.00 0.09 0.00 34 1008.9
20260506173443 80 223 0.0 0.0 0.00 0.09 0.00 34 1008.9
20260506172310 78 111 0.0 0.0 0.00 0.09 0.00 40 1009.1
20260506171816 78 117 0.0 0.0 0.00 0.09 0.00 41 1009.0
20260506171321 77 150 0.0 0.0 0.00 0.09 0.00 46 1009.1
20260506170822 76 103 0.0 0.0 0.00 0.09 0.00 47 1009.2
20260506170321 75 138 0.0 0.0 0.00 0.09 0.00 49 1009.3
20260506165819 73 42 0.0 0.0 0.00 0.09 0.00 49 1009.3
20260506165320 73 94 0.0 0.0 0.00 0.09 0.00 48 1009.4
20260506164834 72 89 0.0 0.0 0.00 0.09 0.00 48 1009.4
20260506164342 72 119 0.0 0.0 0.00 0.09 0.00 49 1009.4
20260506163838 72 92 0.0 0.0 0.00 0.09 0.00 48 1009.5
20260506163337 71 114 0.0 0.0 0.00 0.09 0.00 47 1009.5
20260506162225 70 86 0.0 0.0 0.00 0.09 0.00 48 1009.7
20260506161733 70 130 0.0 0.0 0.00 0.09 0.00 47 1009.7
20260506161241 70 101 0.0 0.0 0.00 0.09 0.00 47 1009.8
20260506160729 70 92 0.0 0.0 0.00 0.09 0.00 46 1009.9
20260506160220 70 109 0.0 0.0 0.00 0.09 0.00 48 1010.0
20260506155731 69 80 0.0 0.0 0.00 0.09 0.00 49 1009.9
20260506155232 68 80 0.0 0.0 0.00 0.09 0.00 48 1010.0
20260506154720 67 85 0.0 0.0 0.00 0.09 0.00 50 1010.0
20260506154222 67 90 0.0 0.0 0.00 0.09 0.00 52 1010.1
20260506153736 66 97 0.0 0.0 0.00 0.09 0.00 55 1010.0
20260506153242 66 202 0.0 0.0 0.00 0.09 0.00 57 1010.2
20260506152735 65 281 0.0 0.0 0.00 0.09 0.00 51 1010.3
20260506152223 64 331 0.0 0.0 0.00 0.09 0.00 52 1010.3
20260506151113 63 351 0.0 0.0 0.00 0.09 0.00 59 1010.6
20260506150559 63 262 0.0 0.0 0.00 0.09 0.00 55 1010.6
20260506150055 62 5 0.0 0.0 0.00 0.09 0.00 59 1010.6
20260506145549 61 287 0.0 0.0 0.00 0.09 0.00 56 1010.6
20260506145048 61 328 0.0 0.0 0.00 0.09 0.00 59 1010.6
20260506144558 60 292 0.0 0.0 0.00 0.09 0.00 63 1010.7
20260506144047 59 34 0.0 0.0 0.00 0.09 0.00 62 1010.6
20260506143555 59 260 0.0 0.0 0.00 0.09 0.00 62 1010.6
20260506142431 56 284 0.0 0.0 0.00 0.09 0.00 67 1010.6
20260506141327 54 312 0.0 0.0 0.00 0.09 0.00 68 1010.8
20260506140819 54 305 0.0 0.0 0.00 0.09 0.00 67 1010.8
20260506140330 54 248 0.0 0.0 0.00 0.09 0.00 67 1010.8
20260506135826 54 261 0.0 0.0 0.00 0.09 0.00 66 1010.8
20260506135326 55 254 0.0 0.0 0.00 0.09 0.00 66 1010.7
20260506134815 55 275 0.0 0.0 0.00 0.09 0.00 65 1010.9
20260506134320 55 269 0.0 0.0 0.00 0.09 0.00 66 1010.9
20260506133815 55 291 0.0 0.0 0.00 0.09 0.00 66 1010.9
20260506133328 55 250 0.0 0.0 0.00 0.09 0.00 66 1010.9
20260506132814 55 264 0.0 0.0 0.00 0.09 0.00 65 1010.7
20260506132307 55 239 0.0 0.0 0.00 0.09 0.00 65 1010.7
20260506130516 55 271 0.0 0.0 0.00 0.09 0.00 65 1010.7
20260506130008 55 276 0.0 0.0 0.00 0.09 0.00 66 1010.6
20260506125506 55 275 0.0 4.3 0.00 0.09 0.00 66 1010.6
20260506124951 55 265 0.0 0.0 0.00 0.09 0.00 66 1010.6
20260506124438 55 251 0.0 0.0 0.00 0.09 0.00 66 1010.6
20260506122716 55 259 0.0 0.0 0.00 0.09 0.00 67 1010.5
20260506122217 54 241 0.0 0.0 0.00 0.09 0.00 67 1010.5
20260506121704 55 247 0.0 0.0 0.00 0.09 0.00 67 1010.4
20260506121153 55 259 0.0 0.0 0.00 0.09 0.00 67 1010.3
20260506120640 54 285 0.0 0.0 0.00 0.09 0.00 68 1010.3
20260506120134 54 262 0.0 0.0 0.00 0.09 0.00 69 1010.2
20260506115627 54 263 0.0 0.0 0.00 0.09 0.00 69 1010.2
20260506115119 55 263 0.0 0.0 0.00 0.09 0.00 68 1010.3
20260506114623 55 281 0.0 0.0 0.00 0.09 0.00 67 1010.3
20260506114123 55 261 0.0 0.9 0.00 0.09 0.00 67 1010.3
20260506112943 54 259 0.0 0.0 0.00 0.09 0.00 69 1010.3
20260506112430 54 234 0.0 0.0 0.00 0.09 0.00 70 1010.3
20260506111936 55 276 0.0 0.0 0.00 0.09 0.00 69 1010.3
20260506111423 54 263 0.0 0.0 0.00 0.09 0.00 70 1010.3
20260506110932 54 260 0.0 0.0 0.00 0.09 0.00 71 1010.3
20260506110430 54 253 0.0 0.0 0.00 0.09 0.00 71 1010.2
20260506105931 54 264 0.0 0.0 0.00 0.09 0.00 72 1010.1
20260506105427 54 272 0.0 0.0 0.00 0.09 0.00 71 1010.1
20260506104926 54 252 0.0 0.0 0.00 0.09 0.00 71 1010.0
20260506104432 55 273 0.0 0.0 0.00 0.09 0.00 70 1010.0
20260506103943 56 302 0.0 0.0 0.00 0.09 0.00 68 1009.9
20260506102220 56 258 0.0 0.0 0.00 0.09 0.00 67 1009.8
20260506101729 56 248 0.0 0.0 0.00 0.09 0.00 67 1009.8
20260506101220 56 266 0.0 0.0 0.00 0.09 0.00 67 1009.8
20260506100713 56 261 0.0 0.0 0.00 0.09 0.00 67 1009.6
20260506100216 57 271 0.0 0.0 0.00 0.09 0.00 67 1009.6
20260506095727 57 262 0.0 0.0 0.00 0.09 0.00 66 1009.6
20260506095238 57 279 0.0 0.0 0.00 0.09 0.00 66 1009.7
20260506094729 57 275 0.0 0.0 0.00 0.09 0.00 65 1009.6
20260506094225 57 250 0.0 0.0 0.00 0.09 0.00 66 1009.6
20260506093712 57 267 0.0 0.0 0.00 0.09 0.00 67 1009.7
20260506093215 57 258 0.0 0.0 0.00 0.09 0.00 66 1009.7
20260506092722 57 274 0.0 0.0 0.00 0.09 0.00 67 1009.7
20260506092237 57 277 0.0 0.0 0.00 0.09 0.00 66 1009.7
20260506091107 58 271 0.0 0.0 0.00 0.09 0.00 66 1009.6
20260506090559 58 266 0.0 0.0 0.00 0.09 0.00 65 1009.6
20260506090054 59 275 0.0 0.0 0.00 0.09 0.00 65 1009.7
20260506085543 58 258 0.0 0.0 0.00 0.09 0.00 65 1009.6
20260506085038 58 282 0.0 0.0 0.00 0.09 0.00 65 1009.7
20260506084547 58 265 0.0 0.0 0.00 0.09 0.00 65 1009.7